Погода в Ханге-Роа

Чили     27°08′56″S   109°25′28″W
темп.,
°C
ветер,
м/с
пор.,
м/с
влажн.,
%
обл.,
%
осадки,
мм/ч
давл.,
гПа
погр.,
м
15 апреля, чт
чт1500:00+22ю1272100 8.0 1018249
03:00+22сз45761 1.6 1016355
06:00+22з34735 4.4 1015437
09:00+23юв33725 0.5 1015719
12:00+22юв547683 0.6 1016724
15:00+22ююв447788 0.2 1015668
18:00+22ююв557727 0.3 1014734
21:00+22ююв5571100 0.2 10161009
16 апреля, пт
пт1600:00+22юв337229 0.3 1016531
03:00+22ююв326981 0.1 1014691
06:00+22юв2168100 0.1 1013692
09:00+22всв3269100 0.0 1015747
12:00+22св3471100 0.3 1015761
15:00+20с4683100 5.0 1013584
18:00+22ссз111389100 14.3 10111089
21:00+23сз9108133 5.5 1012833
17 апреля, сб
сб1700:00+23сз9107913 6.6 1012879
03:00+24зсз910754 0.4 10111038
06:00+24з897619 1.4 10111013
09:00+23ююз66796 0.6 1013607
12:00+23юз77754 0.6 1014875
15:00+23юз77774 0.1 1012822
18:00+23ююз56789 0.1 1013743
21:00+22юв4579100 0.6 1015493
18 апреля, вс
вс1800:00+22юв668199 2.9 1016541
03:00+23ююв667548 1.2 1016867
06:00+22юв65729 1.3 1015882
09:00+22юв546856 0.0 1017843
12:00+23вюв446656 0.0 1018907
15:00+23вюв33655 0.0 1017890
18:00+23вюв43665 0.0 1017847
21:00+23вюв44695 0.0 1019843
19 апреля, пн
пн1900:00+23в44695 0.0 1019858
03:00+22в44685 0.0 1019840
06:00+22в436994 0.0 1019859
09:00+22в4469100 0.0 1020844
12:00+23в44698 0.0 1021905
15:00+23всв446988 0.0 1020910
18:00+23в4469100 0.0 1020917
21:00+23в456989 0.0 1021956